| time (UTC) | temp F | wind direction | speed knots | gust knots | rain 1hr in | rain 24hr in | rain mn in | humidity % | barometer mb |
| 20260504202500 | 70 | 50 | 8.7 | 18.2 | 0.00 | 0.00 | 0.00 | 42 | 1009.1 |
| 20260504202000 | 70 | 50 | 9.6 | 18.2 | 0.00 | 0.00 | 0.00 | 41 | 1009.2 |
| 20260504201501 | 70 | 50 | 10.4 | 16.5 | 0.00 | 0.00 | 0.00 | 40 | 1009.3 |
| 20260504200502 | 71 | 50 | 9.6 | 15.6 | 0.00 | 0.00 | 0.00 | 41 | 1009.4 |
| 20260504200004 | 71 | 50 | 8.7 | 15.6 | 0.00 | 0.00 | 0.00 | 41 | 1009.4 |
| 20260504195501 | 70 | 50 | 8.7 | 14.8 | 0.00 | 0.00 | 0.00 | 43 | 1009.4 |
| 20260504195000 | 70 | 50 | 8.7 | 16.5 | 0.00 | 0.00 | 0.00 | 43 | 1009.4 |
| 20260504194507 | 70 | 50 | 10.4 | 19.1 | 0.00 | 0.00 | 0.00 | 42 | 1009.5 |
| 20260504194000 | 70 | 50 | 10.4 | 19.1 | 0.00 | 0.00 | 0.00 | 42 | 1009.6 |
| 20260504193501 | 70 | 50 | 9.6 | 16.5 | 0.00 | 0.00 | 0.00 | 43 | 1009.6 |
| 20260504193001 | 70 | 50 | 10.4 | 17.4 | 0.00 | 0.00 | 0.00 | 44 | 1009.6 |
| 20260504192501 | 70 | 50 | 7.8 | 17.4 | 0.00 | 0.00 | 0.00 | 42 | 1009.7 |
| 20260504192000 | 69 | 50 | 8.7 | 22.6 | 0.00 | 0.00 | 0.00 | 42 | 1009.7 |
| 20260504191501 | 70 | 50 | 9.6 | 22.6 | 0.00 | 0.00 | 0.00 | 42 | 1009.7 |
| 20260504191000 | 70 | 50 | 8.7 | 13.9 | 0.00 | 0.00 | 0.00 | 43 | 1009.7 |
| 20260504190003 | 69 | 50 | 10.4 | 18.2 | 0.00 | 0.00 | 0.00 | 44 | 1009.8 |
| 20260504185501 | 69 | 50 | 11.3 | 20.9 | 0.00 | 0.00 | 0.00 | 45 | 1009.9 |
| 20260504185001 | 70 | 50 | 9.6 | 20.9 | 0.00 | 0.00 | 0.00 | 42 | 1010.1 |
| 20260504184501 | 69 | 50 | 8.7 | 16.5 | 0.00 | 0.00 | 0.00 | 43 | 1010.0 |
| 20260504184000 | 69 | 50 | 9.6 | 15.6 | 0.00 | 0.00 | 0.00 | 44 | 1010.1 |
| 20260504183500 | 69 | 50 | 10.4 | 23.5 | 0.00 | 0.00 | 0.00 | 44 | 1010.2 |
| 20260504183001 | 69 | 205 | 8.7 | 23.5 | 0.00 | 0.00 | 0.00 | 43 | 1010.3 |
| 20260504182500 | 69 | 50 | 7.0 | 13.9 | 0.00 | 0.00 | 0.00 | 44 | 1010.4 |
| 20260504182001 | 69 | 50 | 7.8 | 13.9 | 0.00 | 0.00 | 0.00 | 44 | 1010.3 |
| 20260504181502 | 69 | 50 | 9.6 | 15.6 | 0.00 | 0.00 | 0.00 | 43 | 1010.4 |
| 20260504181001 | 69 | 50 | 9.6 | 15.6 | 0.00 | 0.00 | 0.00 | 44 | 1010.5 |
| 20260504180500 | 69 | 50 | 8.7 | 16.5 | 0.00 | 0.00 | 0.00 | 44 | 1010.5 |
| 20260504180002 | 68 | 50 | 7.8 | 16.5 | 0.00 | 0.00 | 0.00 | 45 | 1010.5 |
| 20260504175501 | 68 | 50 | 8.7 | 18.2 | 0.00 | 0.00 | 0.00 | 43 | 1010.6 |
| 20260504174502 | 68 | 50 | 6.1 | 13.0 | 0.00 | 0.00 | 0.00 | 45 | 1010.7 |
| 20260504174001 | 67 | 50 | 8.7 | 13.9 | 0.00 | 0.00 | 0.00 | 47 | 1010.9 |
| 20260504173500 | 67 | 50 | 9.6 | 16.5 | 0.00 | 0.00 | 0.00 | 46 | 1011.0 |
| 20260504172500 | 67 | 50 | 10.4 | 16.5 | 0.00 | 0.00 | 0.00 | 45 | 1011.2 |
| 20260504172001 | 66 | 50 | 10.4 | 18.2 | 0.00 | 0.00 | 0.00 | 47 | 1011.2 |
| 20260504171502 | 66 | 50 | 10.4 | 18.2 | 0.00 | 0.00 | 0.00 | 45 | 1011.4 |
| 20260504171001 | 66 | 50 | 10.4 | 19.1 | 0.00 | 0.00 | 0.00 | 46 | 1011.4 |
| 20260504170500 | 66 | 50 | 9.6 | 19.1 | 0.00 | 0.00 | 0.00 | 45 | 1011.6 |
| 20260504151001 | 62 | 50 | 8.7 | 19.1 | 0.00 | 0.00 | 0.00 | 46 | 1012.7 |
| 20260504150500 | 62 | 50 | 7.8 | 17.4 | 0.00 | 0.00 | 0.00 | 44 | 1012.9 |
| 20260504141000 | 57 | 50 | 7.0 | 12.2 | 0.00 | 0.00 | 0.00 | 51 | 1013.3 |
| 20260504130501 | 55 | 50 | 6.1 | 12.2 | 0.00 | 0.00 | 0.00 | 52 | 1013.6 |
| 20260504110500 | 46 | 198 | 4.3 | 7.0 | 0.00 | 0.00 | 0.00 | 65 | 1013.7 |
| 20260504100500 | 42 | 50 | 2.6 | 3.5 | 0.00 | 0.00 | 0.00 | 67 | 1013.6 |
| 20260504082000 | 45 | 50 | 3.5 | 5.2 | 0.00 | 0.00 | 0.00 | 63 | 1013.8 |
| 20260504081501 | 45 | 50 | 3.5 | 5.2 | 0.00 | 0.00 | 0.00 | 63 | 1013.8 |
| 20260504081000 | 45 | 50 | 3.5 | 7.0 | 0.00 | 0.00 | 0.00 | 62 | 1013.8 |
| 20260504080500 | 46 | 50 | 3.5 | 7.0 | 0.00 | 0.00 | 0.00 | 62 | 1013.8 |
| 20260504050502 | 49 | 242 | 6.1 | 9.6 | 0.00 | 0.00 | 0.00 | 54 | 1013.7 |
| 20260504050004 | 49 | 50 | 5.2 | 11.3 | 0.00 | 0.00 | 0.00 | 55 | 1013.6 |
| 20260504045501 | 49 | 50 | 5.2 | 11.3 | 0.00 | 0.00 | 0.00 | 54 | 1013.7 |
| 20260504045002 | 49 | 50 | 5.2 | 9.6 | 0.00 | 0.00 | 0.00 | 54 | 1013.6 |
| 20260504044501 | 49 | 50 | 5.2 | 8.7 | 0.00 | 0.00 | 0.00 | 54 | 1013.6 |
| 20260504044001 | 49 | 50 | 5.2 | 8.7 | 0.00 | 0.00 | 0.00 | 54 | 1013.6 |
| 20260504043502 | 49 | 50 | 5.2 | 8.7 | 0.00 | 0.00 | 0.00 | 54 | 1013.6 |
| 20260504043003 | 49 | 50 | 5.2 | 9.6 | 0.00 | 0.00 | 0.00 | 54 | 1013.6 |
| 20260504042501 | 50 | 50 | 7.0 | 13.9 | 0.00 | 0.00 | 0.00 | 53 | 1013.6 |
| 20260504042001 | 50 | 50 | 7.8 | 13.9 | 0.00 | 0.00 | 0.00 | 52 | 1013.6 |
| 20260504041503 | 50 | 50 | 7.0 | 9.6 | 0.00 | 0.00 | 0.00 | 53 | 1013.5 |
| 20260504041001 | 50 | 50 | 6.1 | 9.6 | 0.00 | 0.00 | 0.00 | 53 | 1013.5 |
| 20260504040501 | 50 | 50 | 6.1 | 9.6 | 0.00 | 0.00 | 0.00 | 52 | 1013.5 |
| 20260504040007 | 50 | 50 | 7.0 | 9.6 | 0.00 | 0.00 | 0.00 | 52 | 1013.4 |
| 20260504035501 | 50 | 50 | 7.0 | 13.0 | 0.00 | 0.00 | 0.00 | 52 | 1013.3 |
| 20260504035001 | 50 | 50 | 7.0 | 13.0 | 0.00 | 0.00 | 0.00 | 51 | 1013.1 |
| 20260504034503 | 50 | 50 | 6.1 | 10.4 | 0.00 | 0.00 | 0.00 | 52 | 1013.1 |
| 20260504034002 | 50 | 50 | 6.1 | 9.6 | 0.00 | 0.00 | 0.00 | 52 | 1013.1 |
| 20260504033502 | 50 | 50 | 6.1 | 9.6 | 0.00 | 0.00 | 0.00 | 52 | 1013.1 |
| 20260504033003 | 50 | 50 | 6.1 | 9.6 | 0.00 | 0.00 | 0.00 | 52 | 1013.1 |
| 20260504032501 | 50 | 50 | 5.2 | 9.6 | 0.00 | 0.00 | 0.00 | 52 | 1013.1 |
| 20260504032001 | 50 | 50 | 4.3 | 8.7 | 0.00 | 0.00 | 0.00 | 53 | 1013.1 |
| 20260504031503 | 50 | 50 | 4.3 | 8.7 | 0.00 | 0.00 | 0.00 | 52 | 1013.1 |
| 20260504031001 | 50 | 50 | 4.3 | 7.0 | 0.00 | 0.00 | 0.00 | 52 | 1013.0 |
| 20260504030501 | 50 | 50 | 4.3 | 6.1 | 0.00 | 0.00 | 0.00 | 52 | 1012.9 |
| 20260504025503 | 51 | 233 | 4.3 | 7.8 | 0.00 | 0.00 | 0.00 | 50 | 1013.0 |
| 20260504025001 | 52 | 236 | 5.2 | 8.7 | 0.00 | 0.00 | 0.00 | 49 | 1012.9 |
| 20260504024502 | 52 | 257 | 5.2 | 8.7 | 0.00 | 0.00 | 0.00 | 49 | 1012.9 |
| 20260504023002 | 52 | 252 | 5.2 | 7.8 | 0.00 | 0.00 | 0.00 | 48 | 1013.0 |
| 20260504022501 | 52 | 252 | 5.2 | 7.8 | 0.00 | 0.00 | 0.00 | 47 | 1013.0 |
| 20260504022001 | 52 | 248 | 5.2 | 7.8 | 0.00 | 0.00 | 0.00 | 47 | 1013.0 |
| 20260504021502 | 52 | 237 | 5.2 | 7.0 | 0.00 | 0.00 | 0.00 | 48 | 1013.0 |
| 20260504021001 | 52 | 255 | 5.2 | 7.8 | 0.00 | 0.00 | 0.00 | 48 | 1013.0 |
| 20260504020503 | 52 | 259 | 5.2 | 7.8 | 0.00 | 0.00 | 0.00 | 47 | 1013.0 |
| 20260504015501 | 53 | 248 | 5.2 | 8.7 | 0.00 | 0.00 | 0.00 | 47 | 1012.9 |
| 20260504015001 | 53 | 240 | 5.2 | 7.8 | 0.00 | 0.00 | 0.00 | 46 | 1013.0 |
| 20260504014502 | 53 | 257 | 5.2 | 8.7 | 0.00 | 0.00 | 0.00 | 46 | 1012.9 |
| 20260504014001 | 53 | 255 | 5.2 | 8.7 | 0.00 | 0.00 | 0.00 | 46 | 1012.9 |
| 20260504013501 | 53 | 250 | 5.2 | 8.7 | 0.00 | 0.00 | 0.00 | 46 | 1012.9 |
| 20260504013004 | 53 | 249 | 6.1 | 8.7 | 0.00 | 0.00 | 0.00 | 45 | 1012.9 |
| 20260504012500 | 54 | 234 | 6.1 | 8.7 | 0.00 | 0.00 | 0.00 | 45 | 1012.8 |
| 20260504012001 | 54 | 252 | 6.1 | 8.7 | 0.00 | 0.00 | 0.00 | 45 | 1012.8 |
| 20260504011502 | 54 | 263 | 6.1 | 8.7 | 0.00 | 0.00 | 0.00 | 44 | 1012.8 |
| 20260504011001 | 54 | 252 | 5.2 | 8.7 | 0.00 | 0.00 | 0.00 | 44 | 1012.7 |
| 20260504010501 | 54 | 238 | 6.1 | 8.7 | 0.00 | 0.00 | 0.00 | 45 | 1012.6 |
| 20260504010004 | 54 | 237 | 6.1 | 8.7 | 0.00 | 0.00 | 0.00 | 44 | 1012.6 |
| 20260504005501 | 54 | 240 | 6.1 | 8.7 | 0.00 | 0.00 | 0.00 | 44 | 1012.6 |
| 20260504005001 | 54 | 265 | 6.1 | 8.7 | 0.00 | 0.00 | 0.00 | 44 | 1012.5 |
| 20260504004502 | 54 | 244 | 6.1 | 8.7 | 0.00 | 0.00 | 0.00 | 44 | 1012.5 |
| 20260504004000 | 54 | 248 | 6.1 | 8.7 | 0.00 | 0.00 | 0.00 | 44 | 1012.4 |
| 20260504003501 | 54 | 264 | 5.2 | 8.7 | 0.00 | 0.00 | 0.00 | 44 | 1012.3 |
| 20260504002501 | 55 | 252 | 5.2 | 8.7 | 0.00 | 0.00 | 0.00 | 43 | 1012.2 |
| 20260504002002 | 55 | 246 | 5.2 | 8.7 | 0.00 | 0.00 | 0.00 | 43 | 1012.1 |
| 20260504001001 | 55 | 238 | 4.3 | 7.0 | 0.00 | 0.00 | 0.00 | 43 | 1012.0 |
| 20260504000501 | 55 | 250 | 4.3 | 7.0 | 0.00 | 0.00 | 0.00 | 43 | 1012.0 |
| 20260504000005 | 55 | 251 | 4.3 | 6.1 | 0.00 | 0.00 | 0.00 | 42 | 1012.0 |
| 20260503235501 | 56 | 249 | 5.2 | 8.7 | 0.00 | 0.00 | 0.00 | 42 | 1011.9 |
| 20260503235001 | 56 | 50 | 6.1 | 8.7 | 0.00 | 0.00 | 0.00 | 42 | 1011.9 |
| 20260503234502 | 56 | 50 | 5.2 | 8.7 | 0.00 | 0.00 | 0.00 | 42 | 1011.8 |
| 20260503233501 | 57 | 50 | 7.0 | 11.3 | 0.00 | 0.00 | 0.00 | 41 | 1011.8 |
| 20260503233003 | 57 | 50 | 7.8 | 13.9 | 0.00 | 0.00 | 0.00 | 39 | 1011.6 |
| 20260503232502 | 57 | 50 | 7.0 | 13.9 | 0.00 | 0.00 | 0.00 | 39 | 1011.6 |
| 20260503232001 | 57 | 50 | 6.1 | 12.2 | 0.00 | 0.00 | 0.00 | 40 | 1011.6 |
| 20260503231502 | 58 | 50 | 7.0 | 12.2 | 0.00 | 0.00 | 0.00 | 40 | 1011.6 |
| 20260503231001 | 58 | 50 | 8.7 | 14.8 | 0.00 | 0.00 | 0.00 | 39 | 1011.6 |
| 20260503230501 | 58 | 50 | 7.8 | 14.8 | 0.00 | 0.00 | 0.00 | 38 | 1011.5 |
| 20260503230004 | 58 | 50 | 7.8 | 13.9 | 0.00 | 0.00 | 0.00 | 38 | 1011.5 |
| 20260503225501 | 58 | 50 | 6.1 | 13.9 | 0.00 | 0.00 | 0.00 | 38 | 1011.6 |
| 20260503225001 | 58 | 50 | 7.0 | 13.9 | 0.00 | 0.00 | 0.00 | 38 | 1011.5 |
| 20260503224001 | 58 | 50 | 8.7 | 16.5 | 0.00 | 0.00 | 0.00 | 37 | 1011.4 |
| 20260503223501 | 58 | 50 | 7.8 | 13.9 | 0.00 | 0.00 | 0.00 | 39 | 1011.4 |
| 20260503223002 | 58 | 50 | 8.7 | 15.6 | 0.00 | 0.00 | 0.00 | 39 | 1011.4 |
| 20260503222501 | 58 | 50 | 9.6 | 18.2 | 0.00 | 0.00 | 0.00 | 38 | 1011.4 |
| 20260503222001 | 59 | 50 | 7.8 | 18.2 | 0.00 | 0.00 | 0.00 | 37 | 1011.4 |
| 20260503221502 | 59 | 50 | 7.8 | 14.8 | 0.00 | 0.00 | 0.00 | 37 | 1011.4 |
| 20260503220501 | 59 | 50 | 7.8 | 15.6 | 0.00 | 0.00 | 0.00 | 38 | 1011.4 |
| 20260503220005 | 59 | 50 | 6.1 | 10.4 | 0.00 | 0.00 | 0.00 | 40 | 1011.4 |
| 20260503215503 | 59 | 50 | 7.8 | 11.3 | 0.00 | 0.00 | 0.00 | 38 | 1011.4 |
| 20260503215001 | 58 | 50 | 8.7 | 15.6 | 0.00 | 0.00 | 0.00 | 40 | 1011.5 |
| 20260503213501 | 59 | 50 | 7.8 | 13.0 | 0.00 | 0.00 | 0.00 | 37 | 1011.4 |
| 20260503213003 | 59 | 50 | 7.0 | 12.2 | 0.00 | 0.00 | 0.00 | 37 | 1011.3 |
| 20260503212501 | 59 | 50 | 8.7 | 14.8 | 0.00 | 0.00 | 0.00 | 36 | 1011.2 |
| 20260503212001 | 59 | 50 | 8.7 | 15.6 | 0.00 | 0.00 | 0.00 | 37 | 1011.2 |
| 20260503211502 | 58 | 50 | 7.8 | 15.6 | 0.00 | 0.00 | 0.00 | 35 | 1011.3 |
| 20260503211001 | 58 | 50 | 9.6 | 20.0 | 0.00 | 0.00 | 0.00 | 37 | 1011.2 |
| 20260503210501 | 59 | 50 | 9.6 | 20.0 | 0.00 | 0.00 | 0.00 | 34 | 1011.2 |
| 20260503210005 | 59 | 50 | 7.8 | 14.8 | 0.00 | 0.00 | 0.00 | 38 | 1011.3 |
| 20260503205001 | 58 | 50 | 8.7 | 20.0 | 0.00 | 0.00 | 0.00 | 37 | 1011.2 |
| 20260503204502 | 59 | 50 | 7.8 | 14.8 | 0.00 | 0.00 | 0.00 | 36 | 1011.3 |
| 20260503204001 | 58 | 50 | 9.6 | 16.5 | 0.00 | 0.00 | 0.00 | 36 | 1011.3 |
| 20260503203501 | 58 | 50 | 9.6 | 16.5 | 0.00 | 0.00 | 0.00 | 36 | 1011.3 |